"Date","subscriberCount","subscriberChange","viewCount","viewChange","videoCount","videoChange","commentCount","commentChange"
"2020-10-15 00:02:06","975000","0","515135005","0","187","0","0","0"
"2020-10-16 00:02:06","975000","0","516473947","1338942","187","0","0","0"
"2020-10-17 00:02:05","976000","1000","517508977","1035030","187","0","0","0"
"2020-10-18 00:02:06","977000","1000","518986836","1477859","187","0","0","0"
"2020-10-19 00:02:06","977000","0","520447179","1460343","187","0","0","0"
"2020-10-20 00:02:06","978000","1000","521481139","1033960","187","0","0","0"
"2020-10-21 00:02:05","978000","0","522567598","1086459","187","0","0","0"
"2020-10-22 00:02:05","979000","1000","523447209","879611","188","1","0","0"
"2020-10-23 00:02:07","979000","0","524460619","1013410","189","1","0","0"
"2020-10-24 00:02:06","980000","1000","525416325","955706","190","1","0","0"
"2020-10-25 00:02:06","980000","0","526138425","722100","190","0","0","0"
"2020-10-27 00:02:06","982000","2000","528667904","2529479","191","1","0","0"
"2020-10-28 00:02:05","982000","0","529809692","1141788","192","1","0","0"
"2020-10-29 00:02:05","983000","1000","531074686","1264994","192","0","0","0"
"2020-10-30 00:02:04","983000","0","532395706","1321020","192","0","0","0"
"2020-10-31 00:02:05","984000","1000","533503911","1108205","193","1","0","0"
"2020-11-01 00:02:04","985000","1000","534802590","1298679","193","0","","0"
"2020-11-02 00:02:04","986000","1000","536403483","1600893","193","0","0","0"
"2020-11-03 00:02:05","986000","0","537652112","1248629","193","0","","0"
"2020-11-04 00:02:05","987000","1000","539196734","1544622","194","1","0","0"
"2020-11-05 00:02:07","988000","1000","540038679","841945","194","0","0","0"
"2020-11-06 00:02:06","988000","0","541546896","1508217","194","0","0","0"
"2020-11-07 00:02:07","989000","1000","542711524","1164628","195","1","0","0"
"2020-11-08 00:02:05","990000","1000","544623074","1911550","195","0","","0"
"2020-11-09 00:02:07","991000","1000","546211839","1588765","195","0","0","0"
"2020-11-10 00:02:05","992000","1000","547504617","1292778","196","1","","0"
"2020-11-11 00:02:05","993000","1000","548743239","1238622","196","0","","0"
"2020-11-12 00:02:04","994000","1000","550042073","1298834","196","0","","0"
"2020-11-13 00:02:04","994000","0","551129654","1087581","197","1","","0"
"2020-11-14 00:02:03","995000","1000","552417679","1288025","197","0","","0"
"2020-11-15 00:02:03","996000","1000","553954760","1537081","198","1","","0"
"2020-11-16 00:02:04","997000","1000","555524959","1570199","198","0","","0"
"2020-11-17 00:02:03","998000","1000","556634857","1109898","198","0","","0"
"2020-11-18 00:02:03","999000","1000","557912411","1277554","199","1","","0"
"2020-11-19 00:02:03","1000000","1000","559123395","1210984","199","0","","0"
"2020-11-20 00:02:04","1000000","0","560289014","1165619","199","0","","0"
"2020-11-21 00:02:03","1000000","0","561586687","1297673","200","1","","0"
"2020-11-22 00:02:03","1000000","0","562986188","1399501","200","0","","0"
"2020-11-23 00:02:03","1000000","0","564313044","1326856","201","1","","0"
"2020-11-24 00:02:03","1000000","0","565602244","1289200","201","0","","0"
"2020-11-25 00:02:03","1000000","0","566652044","1049800","202","1","","0"
"2020-11-26 00:02:03","1000000","0","567803314","1151270","202","0","","0"
"2020-11-27 00:02:04","1000000","0","568919682","1116368","202","0","","0"
"2020-11-28 00:02:03","1000000","0","570073123","1153441","203","1","","0"
"2020-11-29 00:02:03","1000000","0","571338599","1265476","203","0","","0"
"2020-11-30 00:02:03","1000000","0","572761841","1423242","204","1","","0"
"2020-12-01 00:02:03","1000000","0","573774591","1012750","204","0","","0"
"2020-12-02 00:02:04","1000000","0","574798413","1023822","204","0","","0"
"2020-12-03 00:02:03","1000000","0","575859657","1061244","205","1","","0"
"2020-12-04 00:02:03","1010000","10000","577117938","1258281","205","0","","0"
"2020-12-05 00:02:07","1010000","0","578163973","1046035","206","1","","0"
"2020-12-06 00:02:04","1010000","0","579537510","1373537","206","0","","0"
"2020-12-07 00:02:04","1010000","0","581113975","1576465","207","1","","0"
"2020-12-08 00:02:04","1010000","0","582262462","1148487","207","0","","0"
"2020-12-09 00:02:04","1010000","0","583641398","1378936","208","1","","0"
"2020-12-10 00:02:04","1010000","0","584914810","1273412","208","0","","0"
"2020-12-11 00:02:04","1010000","0","586176875","1262065","208","0","","0"
"2020-12-12 00:02:05","1010000","0","587426494","1249619","209","1","","0"
"2020-12-13 00:02:05","1010000","0","589237778","1811284","209","0","","0"
"2020-12-14 00:02:05","1010000","0","590894061","1656283","210","1","","0"
"2020-12-15 00:02:06","1010000","0","592209078","1315017","210","0","","0"
"2020-12-16 00:02:04","1020000","10000","593407344","1198266","211","1","","0"
"2020-12-17 00:02:05","1020000","0","594552214","1144870","211","0","","0"
"2020-12-18 00:02:05","1020000","0","595938580","1386366","211","0","","0"
"2020-12-19 00:02:05","1020000","0","597056759","1118179","212","1","","0"
"2020-12-20 00:02:04","1020000","0","598776935","1720176","212","0","","0"
"2020-12-21 00:02:05","1020000","0","600484696","1707761","213","1","","0"
"2020-12-22 00:02:04","1020000","0","601552628","1067932","213","0","","0"
"2020-12-23 00:02:04","1020000","0","602791181","1238553","214","1","","0"
"2020-12-24 00:02:05","1020000","0","604254160","1462979","214","0","","0"
"2020-12-25 00:02:05","1020000","0","605617178","1363018","215","1","","0"
"2020-12-26 00:02:04","1020000","0","606824892","1207714","215","0","","0"
"2020-12-27 00:02:04","1020000","0","608292798","1467906","216","1","","0"
"2020-12-28 00:02:05","1030000","10000","609765708","1472910","216","0","","0"
"2020-12-29 00:02:04","1030000","0","610987605","1221897","217","1","","0"
"2020-12-30 00:02:04","1030000","0","612553056","1565451","217","0","","0"
"2020-12-31 00:02:03","1030000","0","614255446","1702390","218","1","","0"
"2021-01-01 00:02:05","1030000","0","615898463","1643017","218","0","","0"
"2021-01-02 00:02:06","1030000","0","617428992","1530529","219","1","","0"
"2021-01-03 00:02:06","1030000","0","619040663","1611671","219","0","","0"
"2021-01-04 00:02:06","1030000","0","620754014","1713351","220","1","","0"
"2021-01-05 00:02:07","1040000","10000","622146809","1392795","220","0","","0"
"2021-01-06 00:02:05","1040000","0","623417063","1270254","221","1","","0"
"2021-01-07 00:02:03","1040000","0","624597099","1180036","221","0","","0"
"2021-01-08 00:02:03","1040000","0","626012621","1415522","222","1","","0"
"2021-01-09 00:02:03","1040000","0","627373085","1360464","222","0","","0"
"2021-01-10 00:02:03","1040000","0","629097310","1724225","223","1","","0"
"2021-01-11 00:02:03","1040000","0","630913332","1816022","223","0","","0"
"2021-01-12 00:02:03","1040000","0","632792826","1879494","224","1","","0"
"2021-01-13 00:02:03","1040000","0","634303969","1511143","224","0","","0"
"2021-01-14 00:02:03","1050000","10000","635747500","1443531","225","1","","0"
"2021-01-15 00:02:04","1050000","0","637217250","1469750","225","0","","0"
"2021-01-16 00:02:03","1050000","0","638818178","1600928","226","1","","0"
"2021-01-17 00:02:03","1050000","0","640484692","1666514","226","0","","0"
"2021-01-18 00:02:04","1050000","0","642850630","2365938","227","1","","0"
"2021-01-19 00:02:03","1050000","0","644402544","1551914","227","0","","0"
"2021-01-20 00:02:03","1050000","0","645844719","1442175","228","1","","0"
"2021-01-21 00:02:03","1050000","0","647343464","1498745","228","0","","0"
"2021-01-22 00:02:03","1060000","10000","648750863","1407399","229","1","","0"
"2021-01-23 00:02:04","1060000","0","650442908","1692045","229","0","","0"
"2021-01-24 00:02:03","1060000","0","652354959","1912051","230","1","","0"
"2021-01-25 00:02:03","1060000","0","654385022","2030063","230","0","","0"
"2021-01-26 00:02:03","1060000","0","655828920","1443898","231","1","","0"
"2021-01-27 00:02:03","1060000","0","657365107","1536187","231","0","","0"
"2021-01-28 00:02:03","1060000","0","658747435","1382328","232","1","","0"
"2021-01-29 00:02:04","1060000","0","660312352","1564917","232","0","","0"
"2021-01-30 00:02:03","1060000","0","661984806","1672454","231","-1","","0"
"2021-01-31 00:02:03","1070000","10000","664012183","2027377","231","0","","0"
"2021-02-01 00:02:04","1070000","0","666201400","2189217","231","0","","0"
"2021-02-02 00:02:03","1070000","0","668099910","1898510","231","0","","0"
"2021-02-03 00:02:04","1070000","0","669886673","1786763","232","1","","0"
"2021-02-04 00:02:03","1070000","0","671718872","1832199","232","0","","0"
"2021-02-05 00:02:04","1080000","10000","673604372","1885500","232","0","","0"
"2021-02-06 00:02:04","1080000","0","675604738","2000366","233","1","","0"
"2021-02-07 00:02:03","1080000","0","677701868","2097130","233","0","","0"
"2021-02-08 00:02:04","1080000","0","679875940","2174072","233","0","","0"
"2021-02-09 00:02:03","1080000","0","681430807","1554867","233","0","","0"
"2021-02-10 00:02:04","1080000","0","683252060","1821253","234","1","","0"
"2021-02-11 00:02:03","1080000","0","684634882","1382822","234","0","","0"
"2021-02-12 00:02:03","1090000","10000","687251146","2616264","234","0","","0"
"2021-02-13 00:02:03","1090000","0","688984677","1733531","235","1","","0"
"2021-02-14 00:02:04","1090000","0","691247388","2262711","235","0","","0"
"2021-02-15 00:02:03","1090000","0","692940395","1693007","235","0","","0"
"2021-02-16 00:02:04","1090000","0","695045610","2105215","235","0","","0"
"2021-02-17 00:02:03","1090000","0","696663476","1617866","236","1","","0"
"2021-02-18 00:02:04","1100000","10000","698420421","1756945","236","0","","0"
"2021-02-19 00:02:03","1100000","0","700012483","1592062","236","0","","0"
"2021-02-20 00:02:04","1100000","0","701498574","1486091","237","1","","0"
"2021-02-21 00:02:04","1100000","0","703488758","1990184","237","0","","0"
"2021-02-22 00:02:04","1100000","0","705249634","1760876","237","0","","0"
"2021-02-23 00:02:03","1100000","0","706868589","1618955","237","0","","0"
"2021-02-24 00:02:04","1110000","10000","708912207","2043618","238","1","","0"
"2021-02-25 00:02:03","1110000","0","710349944","1437737","238","0","","0"
"2021-02-26 00:02:04","1110000","0","711847659","1497715","238","0","","0"
"2021-02-27 00:02:03","1110000","0","713510257","1662598","239","1","","0"
"2021-02-28 00:02:04","1110000","0","715456898","1946641","239","0","","0"
"2021-03-01 00:02:03","1110000","0","717409914","1953016","240","1","","0"
"2021-03-02 00:02:04","1120000","10000","718913624","1503710","240","0","","0"
"2021-03-03 00:02:03","1120000","0","720453264","1539640","241","1","","0"
"2021-03-04 00:02:03","1120000","0","722098570","1645306","241","0","","0"
"2021-03-05 00:02:04","1120000","0","722357061","258491","242","1","","0"
"2021-03-06 00:02:03","1120000","0","723965903","1608842","243","1","","0"
"2021-03-07 00:02:04","1120000","0","725580656","1614753","243","0","","0"
"2021-03-08 00:02:04","1120000","0","727534059","1953403","244","1","","0"
"2021-03-09 00:02:03","1120000","0","729492407","1958348","244","0","","0"
"2021-03-10 00:02:04","1130000","10000","731036789","1544382","245","1","","0"
"2021-03-11 00:02:03","1130000","0","732452155","1415366","245","0","","0"
"2021-03-12 00:02:04","1130000","0","733966757","1514602","246","1","","0"
"2021-03-13 00:02:03","1130000","0","735497688","1530931","246","0","","0"
"2021-03-14 00:02:04","1130000","0","737154512","1656824","247","1","","0"
"2021-03-15 00:02:04","1130000","0","739337582","2183070","247","0","","0"
"2021-03-16 00:02:03","1130000","0","741276750","1939168","247","0","","0"
"2021-03-17 00:02:03","1140000","10000","742810152","1533402","248","1","","0"
"2021-03-18 00:02:03","1140000","0","744514173","1704021","248","0","","0"
"2021-03-19 00:02:03","1140000","0","746440948","1926775","249","1","","0"
"2021-03-20 00:02:03","1140000","0","748292113","1851165","249","0","","0"
"2021-03-21 00:02:03","1150000","10000","750177701","1885588","250","1","","0"
"2021-03-22 00:02:03","1150000","0","752312723","2135022","250","0","","0"
"2021-03-23 00:02:04","1150000","0","754850264","2537541","251","1","","0"
"2021-03-24 00:02:04","1160000","10000","757063972","2213708","251","0","","0"
"2021-03-25 00:02:03","1160000","0","759503993","2440021","252","1","","0"
"2021-03-26 00:02:03","1160000","0","761927792","2423799","252","0","","0"
"2021-03-27 00:02:03","1170000","10000","764044300","2116508","253","1","","0"
"2021-03-28 00:02:04","1170000","0","766768522","2724222","253","0","","0"
"2021-03-29 00:02:04","1170000","0","769260668","2492146","254","1","","0"
"2021-03-30 00:02:03","1180000","10000","771884285","2623617","254","0","","0"
"2021-03-31 00:02:03","1180000","0","773996755","2112470","255","1","","0"
"2021-04-01 00:02:04","1180000","0","775928524","1931769","255","0","","0"
"2021-04-02 00:02:03","1180000","0","777809360","1880836","256","1","","0"
"2021-04-03 00:02:03","1190000","10000","779523825","1714465","256","0","","0"
"2021-04-04 00:02:03","1190000","0","781423548","1899723","257","1","","0"
"2021-04-05 00:02:04","1190000","0","783693102","2269554","257","0","","0"
"2021-04-06 00:02:04","1190000","0","785450953","1757851","258","1","","0"
"2021-04-07 00:02:04","1190000","0","786992273","1541320","258","0","","0"
"2021-04-08 00:02:04","1190000","0","788460349","1468076","259","1","","0"
"2021-04-09 00:02:04","1190000","0","789865897","1405548","259","0","","0"
"2021-04-10 00:02:04","1190000","0","791286014","1420117","260","1","","0"
"2021-04-11 00:02:04","1200000","10000","792731030","1445016","260","0","","0"
"2021-04-12 00:02:04","1200000","0","794355808","1624778","261","1","","0"
"2021-04-13 00:02:04","1200000","0","795727151","1371343","261","0","","0"
"2021-04-14 00:02:04","1200000","0","797399808","1672657","262","1","","0"
"2021-04-15 00:02:05","1200000","0","798774704","1374896","262","0","","0"
"2021-04-16 00:02:05","1200000","0","800142901","1368197","262","0","","0"
"2021-04-17 00:02:04","1200000","0","801394034","1251133","263","1","","0"
"2021-04-18 00:02:05","1200000","0","802740911","1346877","263","0","","0"
"2021-04-19 00:02:05","1200000","0","804280277","1539366","264","1","","0"
"2021-04-20 00:02:04","1200000","0","805796712","1516435","264","0","","0"
"2021-04-21 00:02:04","1200000","0","806978608","1181896","265","1","","0"
"2021-04-22 00:02:04","1200000","0","808123799","1145191","265","0","","0"
"2021-04-23 00:02:04","1210000","10000","809277997","1154198","266","1","","0"
"2021-04-24 00:02:04","1210000","0","810503029","1225032","266","0","","0"
"2021-04-25 00:02:04","1210000","0","811704942","1201913","267","1","","0"
"2021-04-26 00:02:05","1210000","0","813109510","1404568","268","1","","0"
"2021-04-27 00:02:04","1210000","0","814294416","1184906","269","1","","0"
"2021-04-28 00:02:04","1210000","0","815916744","1622328","270","1","","0"
"2021-04-29 00:02:04","1210000","0","817113890","1197146","271","1","","0"
"2021-04-30 00:02:04","1210000","0","818455156","1341266","271","0","","0"
"2021-05-01 00:02:05","1210000","0","820199610","1744454","271","0","","0"
"2021-05-02 00:02:04","1210000","0","821594472","1394862","272","1","","0"
"2021-05-03 00:02:05","1220000","10000","823242563","1648091","273","1","","0"
"2021-05-04 00:02:04","1220000","0","824788026","1545463","274","1","","0"
"2021-05-05 00:02:04","1220000","0","826585519","1797493","275","1","","0"
"2021-05-06 00:02:04","1220000","0","828237836","1652317","276","1","","0"
"2021-05-07 00:02:05","1220000","0","830066112","1828276","277","1","","0"
"2021-05-08 00:02:04","1220000","0","831381653","1315541","277","0","","0"
"2021-05-09 00:02:03","1220000","0","832924431","1542778","278","1","","0"
"2021-05-10 00:02:05","1220000","0","834666049","1741618","278","0","","0"
"2021-05-11 00:02:04","1230000","10000","836377577","1711528","279","1","","0"
"2021-05-12 00:02:05","1230000","0","837828142","1450565","279","0","","0"
"2021-05-13 00:02:04","1230000","0","839346222","1518080","280","1","","0"
"2021-05-14 00:02:05","1230000","0","840950118","1603896","280","0","","0"
"2021-05-15 00:02:05","1230000","0","842482391","1532273","281","1","","0"
"2021-05-16 00:02:05","1230000","0","844201923","1719532","282","1","","0"
"2021-05-17 00:02:04","1230000","0","846118063","1916140","283","1","","0"
"2021-05-18 00:02:05","1230000","0","848030818","1912755","283","0","","0"
"2021-05-19 00:02:04","1240000","10000","849613280","1582462","284","1","","0"
"2021-05-20 00:02:04","1240000","0","851273444","1660164","285","1","","0"
"2021-05-21 00:02:05","1240000","0","852889451","1616007","286","1","","0"
"2021-05-22 00:02:05","1240000","0","854557914","1668463","286","0","","0"
"2021-05-23 00:02:05","1240000","0","856486462","1928548","287","1","","0"
"2021-05-24 00:02:05","1240000","0","858635577","2149115","287","0","","0"
"2021-05-25 00:02:05","1240000","0","860302121","1666544","288","1","","0"
"2021-05-26 00:02:04","1250000","10000","862151105","1848984","288","0","","0"
"2021-05-27 00:02:04","1250000","0","863743460","1592355","289","1","","0"
"2021-05-28 00:02:04","1250000","0","865326147","1582687","289","0","","0"
"2021-05-29 00:02:05","1250000","0","866980575","1654428","290","1","","0"
"2021-05-30 00:02:06","1250000","0","868409889","1429314","291","1","","0"
"2021-05-31 00:02:04","1250000","0","870019945","1610056","292","1","","0"
"2021-06-01 00:02:04","1250000","0","871463283","1443338","292","0","","0"
"2021-06-02 00:02:03","1250000","0","872863791","1400508","293","1","","0"
"2021-06-03 00:02:04","1250000","0","874121241","1257450","293","0","","0"
"2021-06-04 00:02:04","1250000","0","875265760","1144519","294","1","","0"
"2021-06-05 00:02:04","1260000","10000","876441297","1175537","294","0","","0"
"2021-06-06 00:02:04","1260000","0","877731962","1290665","295","1","","0"
"2021-06-07 00:02:03","1260000","0","879152591","1420629","295","0","","0"
"2021-06-08 00:02:05","1260000","0","880626032","1473441","295","0","","0"
"2021-06-09 00:02:03","1260000","0","881794436","1168404","296","1","","0"
"2021-06-10 00:02:03","1260000","0","883033958","1239522","296","0","","0"
"2021-06-11 00:02:04","1260000","0","884265565","1231607","297","1","","0"
"2021-06-12 00:02:04","1260000","0","885552247","1286682","297","0","","0"
"2021-06-13 00:02:04","1260000","0","886916269","1364022","298","1","","0"
"2021-06-14 00:02:03","1260000","0","888474260","1557991","297","-1","","0"
"2021-06-15 00:02:04","1270000","10000","890058668","1584408","297","0","","0"
"2021-06-16 00:02:04","1270000","0","891317103","1258435","299","2","","0"
"2021-06-17 00:02:03","1270000","0","892627403","1310300","299","0","","0"
"2021-06-18 00:02:03","1270000","0","893991031","1363628","300","1","","0"
"2021-06-19 00:02:04","1270000","0","895273065","1282034","300","0","","0"
"2021-06-20 00:02:04","1270000","0","896771315","1498250","301","1","","0"
"2021-06-21 00:02:04","1270000","0","898454570","1683255","301","0","","0"
"2021-06-22 00:02:04","1270000","0","900065770","1611200","301","0","","0"
"2021-06-23 00:02:04","1270000","0","901355851","1290081","302","1","","0"
"2021-06-24 00:02:04","1270000","0","902513593","1157742","302","0","","0"
"2021-06-25 00:02:04","1270000","0","903752031","1238438","303","1","","0"
"2021-06-26 00:02:04","1270000","0","905011974","1259943","303","0","","0"
"2021-06-27 00:02:04","1280000","10000","906240026","1228052","304","1","","0"
"2021-06-28 00:02:04","1280000","0","907789607","1549581","304","0","","0"
"2021-06-29 00:02:04","1280000","0","909326087","1536480","304","0","","0"
"2021-06-30 00:02:04","1280000","0","910257100","931013","305","1","","0"
"2021-07-01 00:02:05","1280000","0","911553393","1296293","305","0","","0"
"2021-07-02 00:02:05","1280000","0","912678262","1124869","306","1","","0"
"2021-07-03 00:02:06","1280000","0","913888040","1209778","306","0","","0"
"2021-07-04 00:02:05","1280000","0","915068152","1180112","307","1","","0"
"2021-07-05 00:02:05","1280000","0","916494762","1426610","307","0","","0"
"2021-07-06 00:02:05","1280000","0","917399011","904249","307","0","","0"
"2021-07-07 00:02:04","1280000","0","919148564","1749553","308","1","","0"
"2021-07-08 00:02:06","1280000","0","920409435","1260871","308","0","","0"
"2021-07-09 00:02:05","1280000","0","921777566","1368131","309","1","","0"
"2021-07-10 00:02:05","1290000","10000","923141488","1363922","309","0","","0"
"2021-07-11 00:02:04","1290000","0","924419103","1277615","310","1","","0"
"2021-07-12 00:02:04","1290000","0","925897404","1478301","310","0","","0"
"2021-07-13 00:02:03","1290000","0","927274714","1377310","310","0","","0"
"2021-07-14 00:02:04","1290000","0","928675759","1401045","311","1","","0"
"2021-07-15 00:02:04","1290000","0","930017915","1342156","311","0","","0"
"2021-07-16 00:02:04","1290000","0","931353778","1335863","312","1","","0"
"2021-07-17 00:02:03","1290000","0","932599277","1245499","312","0","","0"
"2021-07-18 00:02:03","1290000","0","933938799","1339522","313","1","","0"
"2021-07-19 00:02:04","1290000","0","935424866","1486067","313","0","","0"
"2021-07-20 00:02:04","1290000","0","936939173","1514307","313","0","","0"
"2021-07-21 00:02:03","1300000","10000","938205895","1266722","314","1","","0"
"2021-07-22 00:02:03","1300000","0","939335881","1129986","296","-18","","0"
"2021-07-23 00:02:04","1300000","0","940415248","1079367","246","-50","","0"
"2021-07-24 00:02:03","1300000","0","839335745","-101079503","247","1","","0"
"2021-07-25 00:02:04","1300000","0","779708266","-59627479","247","0","","0"
"2021-07-26 00:02:03","1300000","0","728771631","-50936635","248","1","","0"
"2021-07-27 00:02:03","1300000","0","730457876","1686245","246","-2","","0"
"2021-07-28 00:02:04","1300000","0","731824578","1366702","253","7","","0"
"2021-07-29 00:02:03","1300000","0","757189640","25365062","284","31","","0"
"2021-07-30 00:02:03","1300000","0","813528150","56338510","289","5","","0"
"2021-07-31 00:02:04","1300000","0","802777497","-10750653","290","1","","0"
"2021-08-01 00:02:03","1310000","10000","804603509","1826012","284","-6","","0"
"2021-08-02 00:02:03","1310000","0","806369081","1765572","294","10","","0"
"2021-08-03 00:02:03","1310000","0","843370642","37001561","298","4","","0"
"2021-08-04 00:02:03","1310000","0","815292586","-28078056","299","1","","0"
"2021-08-05 00:02:02","1310000","0","816672950","1380364","299","0","","0"
"2021-08-06 00:02:03","1310000","0","818101000","1428050","300","1","","0"
"2021-08-07 00:02:03","1310000","0","819184485","1083485","300","0","","0"
"2021-08-08 00:02:04","1310000","0","820757759","1573274","301","1","","0"
"2021-08-09 00:02:03","1310000","0","822473325","1715566","301","0","","0"
"2021-08-10 00:02:04","1320000","10000","824247706","1774381","301","0","","0"
"2021-08-11 00:02:04","1320000","0","824247706","0","302","1","","0"
"2021-08-12 00:02:03","1320000","0","827285620","3037914","302","0","","0"
"2021-08-13 00:02:03","1320000","0","828678790","1393170","303","1","","0"
"2021-08-14 00:02:04","1320000","0","830112597","1433807","303","0","","0"
"2021-08-15 00:02:04","1320000","0","831572048","1459451","304","1","","0"
"2021-08-16 00:02:05","1320000","0","833305164","1733116","304","0","","0"
"2021-08-17 00:02:04","1330000","10000","834347522","1042358","304","0","","0"
"2021-08-18 00:02:03","1330000","0","836837631","2490109","305","1","","0"
"2021-08-19 00:02:03","1330000","0","838371590","1533959","305","0","","0"
"2021-08-20 00:02:03","1330000","0","839862849","1491259","306","1","","0"
"2021-08-21 00:02:03","1330000","0","841369933","1507084","306","0","","0"
"2021-08-22 00:02:08","1330000","0","843068830","1698897","307","1","","0"
"2021-08-23 00:02:03","1340000","10000","845134275","2065445","307","0","","0"
"2021-08-24 00:02:04","1340000","0","847263534","2129259","307","0","","0"
"2021-08-25 00:02:03","1340000","0","848963073","1699539","308","1","","0"
"2021-08-26 00:02:04","1350000","10000","850386359","1423286","308","0","","0"